Location: Newark
(6.7500°N, 43.3333°E)
Time: 20:20:45
(UTC+00:00)

ISS - Visible Passes

Search period start: 17 July 2019 00:00
Search period end: 27 July 2019 00:00
Orbit: 409 x 418 km, 51.6° (Epoch: 18 July)

Date Brightness Start Highest point End Pass type
(mag) Time Alt. Az. Time Alt. Az. Time Alt. Az.
18 Jul -0.4 16:13:03 10° W 16:15:06 15° NW 16:17:08 10° NNW visible
19 Jul -2.4 02:07:50 10° NNW 02:10:58 41° NE 02:14:05 10° SE visible
20 Jul -0.8 01:19:23 10° N 01:21:40 17° NE 01:23:57 10° E visible
21 Jul -3.2 02:06:03 11° WNW 02:08:53 33° SW 02:11:53 10° SSE visible
